�N����,����,�~����,�C��,���x,�C��,����,���ϕ���,�ő�u�ԕ���,�ő厞����,���˗�,�I�_���x,�n�����x,�ő啗���N��,DTYPE
"21/11/13","00:10",0.0,4.3,92.8,1011.4,290.6,1.6,2.6,315.5,0.00,3.3,13.1,"00:08:08",1
"21/11/13","00:20",0.0,4.7,93.0,1011.4,295.2,1.7,3.2,318.0,0.00,3.7,13.2,"00:17:28",1
"21/11/13","00:30",0.0,5.0,93.1,1011.9,306.6,2.0,3.1,320.7,0.00,4.0,13.2,"00:29:52",1
"21/11/13","00:40",0.0,5.2,93.2,1011.4,306.8,2.0,2.8,323.1,0.00,4.2,13.0,"00:37:52",1
"21/11/13","00:50",0.0,5.1,93.2,1011.4,304.0,1.3,2.7,320.1,0.00,4.1,13.1,"00:40:24",1
"21/11/13","01:00",0.0,4.9,93.6,1011.9,309.5,1.8,3.4,323.4,0.00,4.0,13.0,"00:58:40",1
"21/11/13","01:10",0.0,5.2,93.7,1011.9,316.9,1.7,3.4,330.7,0.00,4.3,13.1,"01:09:52",1
"21/11/13","01:20",0.0,5.3,93.5,1011.6,308.5,1.8,3.3,338.6,0.00,4.4,13.0,"01:12:56",1
"21/11/13","01:30",0.0,5.3,93.6,1011.6,300.7,2.1,3.6,315.0,0.00,4.4,13.0,"01:25:20",1
"21/11/13","01:40",0.0,5.3,93.6,1011.9,288.1,2.1,3.7,314.8,0.00,4.4,12.9,"01:31:04",1
"21/11/13","01:50",0.0,5.0,93.6,1011.9,293.4,1.7,2.6,301.7,0.00,4.1,12.7,"01:42:00",1
"21/11/13","02:00",0.0,5.0,93.6,1011.9,333.3,1.7,3.4,339.1,0.00,4.1,12.7,"01:52:40",1
"21/11/13","02:10",0.0,4.6,93.6,1012.1,291.8,1.3,2.2,308.1,0.00,3.7,12.7,"02:02:56",1
"21/11/13","02:20",0.0,4.2,93.8,1011.9,290.7,1.0,1.7,309.5,0.00,3.3,12.8,"02:17:52",1
"21/11/13","02:30",0.0,3.7,93.9,1011.6,295.4,1.7,2.6,322.0,0.00,2.9,12.7,"02:27:28",1
"21/11/13","02:40",0.0,3.5,94.1,1011.9,311.0,2.0,2.7,317.5,0.00,2.7,12.7,"02:32:56",1
"21/11/13","02:50",0.0,3.6,94.2,1011.9,310.0,2.1,2.7,321.5,0.00,2.8,12.6,"02:49:28",1
"21/11/13","03:00",0.0,3.7,94.2,1012.1,296.6,1.8,3.2,321.5,0.00,2.9,12.5,"02:51:28",1
"21/11/13","03:10",0.0,3.8,94.3,1012.1,295.9,1.7,2.6,315.9,0.00,3.0,12.7,"03:02:48",1
"21/11/13","03:20",0.0,3.7,94.3,1012.1,306.1,2.0,2.6,306.4,0.00,2.9,12.5,"03:12:56",1
"21/11/13","03:30",0.0,3.3,94.4,1012.1,293.6,1.7,2.6,317.4,0.00,2.5,12.5,"03:27:28",1
"21/11/13","03:40",0.0,3.2,94.5,1011.6,294.0,1.6,2.1,307.5,0.00,2.4,12.6,"03:30:16",1
"21/11/13","03:50",0.0,3.0,94.7,1011.6,291.7,1.2,2.1,309.1,0.00,2.3,12.4,"03:45:12",1
"21/11/13","04:00",0.0,3.0,94.8,1012.1,289.4,1.5,2.2,310.1,0.00,2.3,12.4,"03:59:52",1
"21/11/13","04:10",0.0,2.9,94.9,1012.3,302.0,1.7,2.6,309.0,0.00,2.2,12.2,"04:05:12",1
"21/11/13","04:20",0.0,2.7,95.0,1012.3,300.7,2.0,2.8,315.3,0.00,2.0,12.2,"04:10:16",1
"21/11/13","04:30",0.0,2.8,95.2,1012.1,303.8,2.1,2.7,304.5,0.00,2.1,12.1,"04:28:40",1
"21/11/13","04:40",0.0,2.9,95.2,1012.6,302.9,1.8,2.5,309.5,0.00,2.2,12.4,"04:31:52",1
"21/11/13","04:50",0.0,2.9,95.3,1012.1,288.0,2.0,2.1,278.7,0.00,2.3,12.2,"04:44:08",1
"21/11/13","05:00",0.0,2.6,95.3,1012.3,284.6,1.3,1.8,296.8,0.00,2.0,12.2,"04:50:08",1
"21/11/13","05:10",0.0,2.7,95.6,1012.6,307.5,2.3,3.1,317.4,0.00,2.1,12.1,"05:06:32",1
"21/11/13","05:20",0.0,2.8,95.6,1012.6,305.3,2.0,2.5,311.7,0.00,2.2,12.2,"05:11:12",1
"21/11/13","05:30",0.0,2.9,95.7,1012.8,283.0,2.0,2.6,316.5,0.00,2.3,11.9,"05:24:16",1
"21/11/13","05:40",0.0,3.2,95.8,1012.8,294.0,2.2,3.1,318.4,0.00,2.6,12.1,"05:39:20",1
"21/11/13","05:50",0.0,3.1,95.7,1012.8,294.0,1.6,2.9,322.9,0.00,2.5,11.8,"05:40:24",1
"21/11/13","06:00",0.0,2.7,95.9,1012.8,307.5,2.3,3.1,322.4,0.00,2.2,11.9,"05:59:20",1
"21/11/13","06:10",0.0,2.6,96.1,1012.6,303.6,2.0,2.8,312.0,0.00,2.1,11.9,"06:02:08",1
"21/11/13","06:20",0.0,2.6,96.2,1013.0,302.7,1.0,2.2,303.4,0.00,2.1,11.9,"06:10:32",1
"21/11/13","06:30",0.0,2.6,96.3,1013.3,311.2,2.5,3.3,323.4,0.00,2.1,11.8,"06:27:04",1
"21/11/13","06:40",0.0,2.4,96.5,1013.8,303.4,2.0,2.9,318.4,0.00,1.9,11.8,"06:30:24",1
"21/11/13","06:50",0.0,2.6,96.6,1013.3,283.2,1.8,2.6,306.8,0.00,2.2,11.7,"06:48:48",1
"21/11/13","07:00",0.0,2.8,96.6,1013.5,291.0,2.0,2.4,273.7,0.00,2.4,11.8,"06:57:04",1
"21/11/13","07:10",0.0,3.1,96.7,1013.8,286.2,2.0,2.9,309.4,0.00,2.7,11.7,"07:06:48",1
"21/11/13","07:20",0.0,3.2,96.7,1014.0,279.1,1.5,1.8,279.7,0.00,2.8,11.9,"07:12:40",1
"21/11/13","07:30",0.0,3.6,96.9,1014.5,296.2,1.6,2.7,316.7,0.00,3.2,11.5,"07:26:04",1
"21/11/13","07:40",0.0,4.0,96.9,1014.5,335.8,1.4,1.4,335.4,0.00,3.6,11.6,"07:31:50",1
"21/11/13","07:50",0.0,4.4,96.8,1014.9,302.3,1.1,1.6,291.8,0.01,4.0,11.6,"07:43:16",1
"21/11/13","08:00",0.0,5.2,96.8,1014.9,268.9,0.7,0.9,283.8,0.01,4.8,11.7,"07:59:30",1
"21/11/13","08:10",0.0,6.1,96.6,1015.4,261.5,0.2,0.8,259.9,0.02,5.6,11.5,"08:07:52",1
"21/11/13","08:20",0.0,6.7,96.6,1015.9,275.2,0.6,1.2,328.7,0.03,6.2,11.7,"08:12:20",1
"21/11/13","08:30",0.0,7.3,96.4,1016.1,302.1,0.8,1.3,289.2,0.04,6.8,11.6,"08:22:32",1
"21/11/13","08:40",0.0,7.8,96.3,1016.4,320.7,0.5,1.3,308.7,0.06,7.3,11.6,"08:31:28",1
"21/11/13","08:50",0.0,7.5,95.0,1016.8,247.8,0.5,1.3,236.5,0.11,6.8,11.5,"08:47:20",1
"21/11/13","09:00",0.0,8.2,94.9,1016.6,231.4,0.7,1.8,228.2,0.16,7.5,11.7,"08:52:16",1
"21/11/13","09:10",0.0,8.1,93.6,1016.8,211.5,1.3,2.7,219.1,0.20,7.2,11.5,"09:08:16",1
"21/11/13","09:20",0.0,8.9,92.6,1017.1,227.6,1.1,2.8,241.8,0.23,7.8,11.8,"09:19:52",1
"21/11/13","09:30",0.0,9.5,90.8,1017.1,232.7,1.1,3.3,238.2,0.25,8.1,11.5,"09:20:24",1
"21/11/13","09:40",0.0,10.3,87.8,1017.3,261.0,1.0,2.1,231.8,0.28,8.4,11.6,"09:31:44",1
"21/11/13","09:50",0.0,10.7,83.8,1017.5,231.1,0.7,1.7,242.4,0.30,8.1,11.6,"09:43:44",1
"21/11/13","10:00",0.0,11.3,79.8,1017.5,220.4,0.7,2.4,237.9,0.32,8.0,11.7,"09:52:48",1
"21/11/13","10:10",0.0,11.5,75.5,1017.5,184.2,1.0,2.0,222.5,0.34,7.4,11.6,"10:02:16",1
"21/11/13","10:20",0.0,12.1,73.3,1017.3,228.7,0.7,1.6,202.7,0.36,7.5,11.8,"10:16:48",1
"21/11/13","10:30",0.0,12.5,71.4,1017.1,212.9,0.8,2.1,220.2,0.37,7.5,11.9,"10:20:56",1
"21/11/13","10:40",0.0,12.7,69.6,1017.3,210.6,1.3,3.1,224.2,0.39,7.3,12.0,"10:34:48",1
"21/11/13","10:50",0.0,13.1,68.2,1017.1,154.6,1.0,2.0,133.2,0.40,7.4,12.0,"10:49:52",1
"21/11/13","11:00",0.0,13.4,67.8,1016.4,192.4,1.0,2.2,219.2,0.41,7.6,12.1,"10:51:12",1
"21/11/13","11:10",0.0,13.7,66.5,1016.4,196.1,1.3,2.7,214.9,0.42,7.6,12.2,"11:03:12",1
"21/11/13","11:20",0.0,14.1,65.6,1016.1,160.7,1.1,3.1,209.0,0.43,7.8,12.3,"11:19:12",1
"21/11/13","11:30",0.0,13.6,65.5,1016.1,188.9,1.2,2.7,227.3,0.25,7.3,12.2,"11:20:08",1
"21/11/13","11:40",0.0,14.2,65.2,1015.6,147.9,1.0,2.6,120.0,0.45,7.8,12.3,"11:34:40",1
"21/11/13","11:50",0.0,14.9,63.5,1015.4,170.2,1.0,2.8,231.7,0.45,8.1,12.6,"11:42:16",1
"21/11/13","12:00",0.0,15.3,63.0,1015.2,201.3,1.1,1.8,143.0,0.46,8.3,12.6,"11:52:56",1
"21/11/13","12:10",0.0,14.7,61.5,1014.7,171.0,1.0,2.8,239.0,0.21,7.4,12.7,"12:01:52",1
"21/11/13","12:20",0.0,14.2,63.0,1014.5,326.9,0.5,1.8,116.5,0.09,7.3,12.7,"12:10:16",1
"21/11/13","12:30",0.0,15.3,63.2,1014.7,224.2,1.3,2.7,215.1,0.44,8.4,12.6,"12:21:12",1
"21/11/13","12:40",0.0,16.0,59.3,1014.0,210.5,1.2,2.7,234.6,0.46,8.1,12.7,"12:30:08",1
"21/11/13","12:50",0.0,16.4,55.5,1014.0,234.5,1.2,3.3,252.2,0.46,7.5,12.9,"12:46:40",1
"21/11/13","13:00",0.0,16.3,51.0,1013.5,247.0,2.5,5.9,216.1,0.45,6.2,13.2,"12:55:04",1
"21/11/13","13:10",0.0,16.7,49.9,1013.3,277.1,1.8,3.9,210.9,0.43,6.2,13.1,"13:05:52",1
"21/11/13","13:20",0.0,15.9,48.7,1013.8,255.9,2.1,5.2,231.2,0.21,5.2,13.2,"13:16:56",1
"21/11/13","13:30",0.0,16.0,50.0,1013.8,276.3,1.8,4.1,242.2,0.33,5.6,13.2,"13:21:52",1
"21/11/13","13:40",0.0,16.3,48.4,1013.3,309.8,2.0,4.0,335.3,0.35,5.4,13.4,"13:34:40",1
"21/11/13","13:50",0.0,16.6,47.6,1013.5,284.5,2.0,6.0,343.9,0.38,5.5,13.4,"13:40:24",1
"21/11/13","14:00",0.0,16.9,47.1,1013.5,279.7,1.7,4.1,285.1,0.36,5.6,13.3,"13:57:44",1
"21/11/13","14:10",0.0,17.3,46.1,1013.3,268.6,1.7,3.9,253.9,0.39,5.7,13.7,"14:06:56",1
"21/11/13","14:20",0.0,17.2,46.9,1013.3,288.0,2.1,3.7,331.6,0.41,5.8,13.7,"14:16:56",1
"21/11/13","14:30",0.0,17.3,45.9,1013.3,288.0,1.2,3.4,299.7,0.30,5.6,13.8,"14:21:12",1
"21/11/13","14:40",0.0,16.8,46.1,1013.5,250.6,2.1,4.3,221.5,0.33,5.2,13.8,"14:35:52",1
"21/11/13","14:50",0.0,16.0,48.3,1013.5,224.9,2.6,6.5,226.6,0.21,5.1,13.9,"14:40:02",1
"21/11/13","15:00",0.0,15.3,49.9,1013.5,253.4,2.5,4.8,226.8,0.10,5.0,14.0,"14:50:08",1
"21/11/13","15:10",0.0,15.6,51.5,1013.5,248.8,2.1,4.1,229.1,0.15,5.7,14.2,"15:04:16",1
"21/11/13","15:20",0.0,15.9,50.2,1013.3,249.7,2.2,3.9,212.8,0.17,5.6,14.1,"15:12:24",1
"21/11/13","15:30",0.0,15.3,48.9,1013.8,266.2,1.7,3.3,241.0,0.04,4.7,14.1,"15:26:40",1
"21/11/13","15:40",0.0,14.7,51.7,1013.8,264.9,1.5,3.6,236.6,0.03,4.9,14.1,"15:38:24",1
"21/11/13","15:50",0.0,14.5,53.4,1013.8,259.6,1.6,3.9,240.3,0.03,5.2,13.9,"15:49:44",1
"21/11/13","16:00",0.0,14.9,53.2,1014.0,265.0,1.8,4.1,242.6,0.06,5.5,14.3,"15:56:56",1
"21/11/13","16:10",0.0,14.7,53.2,1013.8,274.9,1.3,2.9,307.6,0.02,5.3,14.1,"16:02:56",1
"21/11/13","16:20",0.0,14.1,54.9,1014.0,267.6,1.2,2.8,243.5,0.00,5.2,14.3,"16:14:56",1
"21/11/13","16:30",0.0,13.6,57.5,1013.8,261.6,1.3,2.2,249.8,0.00,5.4,14.1,"16:27:44",1
"21/11/13","16:40",0.0,13.2,60.0,1014.2,263.6,1.3,2.1,249.9,0.00,5.7,14.1,"16:37:48",1
"21/11/13","16:50",0.0,12.8,62.9,1014.2,315.5,1.3,1.8,324.9,0.00,6.0,14.0,"16:48:56",1
"21/11/13","17:00",0.0,12.5,64.9,1014.5,291.8,1.2,1.8,333.2,0.00,6.1,14.2,"16:51:50",1
"21/11/13","17:10",0.0,12.3,66.6,1014.2,295.0,1.1,1.6,266.1,0.00,6.3,14.4,"17:06:30",1
"21/11/13","17:20",0.0,12.0,68.2,1014.5,306.3,1.5,1.9,318.6,0.00,6.4,14.2,"17:17:34",1
"21/11/13","17:30",0.0,11.4,69.3,1014.2,286.8,1.3,2.0,324.9,0.00,6.0,14.2,"17:21:58",1
"21/11/13","17:40",0.0,11.0,70.7,1014.5,304.0,1.7,2.5,323.2,0.00,5.9,14.2,"17:34:32",1
"21/11/13","17:50",0.0,10.5,71.8,1014.5,300.1,1.6,1.9,321.8,0.00,5.7,14.1,"17:45:28",1
"21/11/13","18:00",0.0,10.1,73.3,1014.2,275.4,1.7,2.5,264.3,0.00,5.6,13.9,"17:55:44",1
"21/11/13","18:10",0.0,9.8,74.5,1014.7,288.9,1.7,2.1,277.8,0.00,5.5,14.0,"18:08:40",1
"21/11/13","18:20",0.0,9.6,75.8,1014.7,298.7,1.8,2.0,305.9,0.00,5.6,14.0,"18:14:24",1
"21/11/13","18:30",0.0,9.4,76.8,1014.9,298.6,1.7,2.5,292.0,0.00,5.6,13.9,"18:26:08",1
"21/11/13","18:40",0.0,9.2,77.6,1015.2,295.7,1.6,2.0,326.5,0.00,5.5,13.9,"18:34:00",1
"21/11/13","18:50",0.0,9.0,78.6,1014.9,292.3,1.7,2.2,306.2,0.00,5.5,13.9,"18:42:24",1
"21/11/13","19:00",0.0,9.0,79.8,1015.2,306.8,2.3,3.4,321.7,0.00,5.7,13.8,"18:55:20",1
"21/11/13","19:10",0.0,9.3,80.7,1015.2,314.3,2.7,3.6,320.1,0.00,6.2,13.9,"19:02:32",1
"21/11/13","19:20",0.0,9.2,81.1,1015.2,297.1,2.0,3.5,337.1,0.00,6.2,13.9,"19:19:20",1
"21/11/13","19:30",0.0,9.3,81.3,1015.2,292.3,2.0,3.4,309.5,0.00,6.3,13.7,"19:26:08",1
"21/11/13","19:40",0.0,9.4,81.1,1015.2,291.4,2.0,2.8,307.0,0.00,6.4,13.6,"19:30:24",1
"21/11/13","19:50",0.0,9.1,81.0,1015.6,297.6,1.8,2.4,309.7,0.00,6.1,13.5,"19:47:20",1
"21/11/13","20:00",0.0,9.1,81.3,1015.2,324.3,1.0,2.2,302.1,0.00,6.1,13.8,"19:50:56",1
"21/11/13","20:10",0.0,8.8,81.6,1015.6,305.0,1.5,2.8,323.9,0.00,5.9,13.8,"20:08:40",1
"21/11/13","20:20",0.0,8.3,82.2,1015.6,298.5,1.8,2.4,320.9,0.00,5.5,13.6,"20:10:24",1
"21/11/13","20:30",0.0,8.2,83.1,1015.4,309.9,1.7,2.1,305.5,0.00,5.5,13.6,"20:26:56",1
"21/11/13","20:40",0.0,8.2,83.9,1015.2,292.7,1.6,2.1,269.8,0.00,5.7,13.5,"20:32:48",1
"21/11/13","20:50",0.0,8.3,84.6,1015.6,282.2,1.3,2.1,303.3,0.00,5.9,13.6,"20:49:04",1
"21/11/13","21:00",0.0,8.6,85.1,1015.4,296.4,1.8,2.7,316.6,0.00,6.3,13.5,"20:52:16",1
"21/11/13","21:10",0.0,8.9,85.4,1015.4,289.8,1.6,2.0,298.2,0.00,6.6,13.3,"21:00:24",1
"21/11/13","21:20",0.0,9.1,85.5,1015.6,281.9,1.1,1.9,296.4,0.00,6.8,13.5,"21:11:12",1
"21/11/13","21:30",0.0,9.1,85.6,1016.1,293.4,1.0,1.7,288.4,0.00,6.9,13.3,"21:24:16",1
"21/11/13","21:40",0.0,9.2,85.8,1016.1,310.8,0.6,1.4,295.9,0.00,7.0,13.1,"21:37:04",1
"21/11/13","21:50",0.0,9.2,85.8,1016.4,291.3,0.8,2.1,321.6,0.00,7.0,13.5,"21:48:56",1
"21/11/13","22:00",0.0,9.3,86.0,1016.6,311.5,1.8,2.7,316.7,0.00,7.1,13.3,"21:50:02",1
"21/11/13","22:10",0.0,9.2,86.2,1016.6,315.8,1.7,2.6,323.4,0.00,7.1,13.3,"22:00:08",1
"21/11/13","22:20",0.0,9.2,86.4,1016.6,299.1,1.5,2.0,315.7,0.00,7.1,13.2,"22:15:04",1
"21/11/13","22:30",0.0,9.1,86.6,1016.4,306.2,1.6,2.1,323.7,0.00,7.0,13.4,"22:21:44",1
"21/11/13","22:40",0.0,9.1,86.7,1016.6,291.4,1.3,1.9,318.1,0.00,7.0,13.3,"22:38:08",1
"21/11/13","22:50",0.0,9.1,86.8,1016.6,304.4,1.6,2.0,317.6,0.00,7.1,13.4,"22:41:44",1
"21/11/13","23:00",0.0,9.2,86.9,1017.1,290.0,1.5,2.0,314.0,0.00,7.2,13.4,"22:55:20",1
"21/11/13","23:10",0.0,9.2,86.9,1016.6,284.0,1.1,1.8,271.7,0.00,7.2,13.2,"23:07:28",1
"21/11/13","23:20",0.0,9.3,86.8,1016.6,309.1,1.3,2.4,312.6,0.00,7.3,13.2,"23:12:56",1
"21/11/13","23:30",0.0,9.3,86.7,1016.6,303.8,1.3,1.7,319.3,0.00,7.2,13.1,"23:21:28",1
"21/11/13","23:40",0.0,9.2,86.7,1016.6,300.1,1.5,2.1,314.3,0.00,7.1,13.1,"23:34:16",1
"21/11/13","23:50",0.0,9.2,86.9,1016.4,300.8,1.2,1.9,308.5,0.00,7.2,13.2,"23:47:28",1
"21/11/13","24:00",0.0,9.2,87.1,1016.4,300.6,1.1,1.4,315.8,0.00,7.2,13.3,"23:50:16",1
